Wind_Speed
24 26 26 23 22 22 24 25 26 26 25 22 21 21 21 20 18 15 14 14 14 14 14 14 12 11 11 11 12 14 15 16 17 16 15 14 14 14 15 16 16 17 17 18 18 19 20 20 21 21 21 21 21 20 19 18 18 17 17 17 17 16 16 17 17 17 17 17 17 17 17 17 17 17 18 18 18 18 19 19 20 21 21 21 21
23 24 24 23 24 26 27 28 27 24 21 20 20 22 22 21 19 16 16 16 16 16 16 15 13 13 12 13 14 15 16 16 16 15 14 13 12 13 15 16 17 17 18 19 19 20 20 20 20 21 21 20 20 20 19 18 17 17 17 17 17 16 15 16 16 16 16 16 17 17 17 17 18 18 18 18 18 18 19 19 20 20 21 22 23
23 21 20 19 20 23 26 26 24 22 21 21 22 23 24 22 20 18 18 18 18 18 17 16 15 15 14 15 15 15 15 15 15 15 14 13 13 13 14 15 16 16 17 18 19 19 20 20 21 21 20 20 20 19 19 18 18 18 18 18 17 17 17 17 17 17 17 16 17 17 17 17 18 18 19 19 20 19 19 20 21 21 21 22 23
24 23 20 16 15 18 21 22 21 21 22 22 23 24 25 24 22 20 20 20 19 19 18 18 17 16 16 15 15 15 15 15 15 16 15 15 14 13 14 14 15 15 17 18 19 20 20 21 22 22 22 22 21 21 21 20 20 20 20 20 20 20 19 19 18 18 18 17 17 18 19 19 19 19 20 21 22 22 22 22 23 23 22 23 24
21 20 18 14 12 14 16 18 19 20 22 23 25 26 25 24 23 22 21 21 20 19 19 19 19 18 17 17 16 15 14 14 15 16 16 16 15 14 14 14 16 17 19 20 21 21 22 22 23 24 24 24 23 24 24 23 23 23 22 22 23 23 22 21 20 20 19 19 19 20 20 20 20 20 22 24 25 26 25 25 27 27 26 25 26
19 18 16 14 12 11 13 16 17 19 21 24 25 25 26 25 24 22 22 22 21 21 21 21 21 20 20 19 18 17 16 16 16 16 16 16 15 15 15 17 19 20 21 22 22 22 23 24 25 26 26 26 26 26 26 25 26 26 25 24 24 24 23 22 21 21 20 20 20 21 22 23 24 25 26 27 29 30 30 30 30 30 30 29 29
17 17 16 15 14 13 14 15 16 17 20 22 22 21 22 24 24 22 21 21 21 21 21 21 21 21 21 20 20 20 21 21 20 19 18 18 18 18 19 21 23 23 24 24 24 24 25 25 26 27 28 29 28 28 28 28 28 27 27 26 25 24 24 23 22 23 23 23 23 24 25 27 30 32 32 32 32 34 35 35 34 34 34 33 32
17 19 20 19 17 16 17 18 18 19 21 22 21 20 19 19 21 23 23 22 22 22 22 21 21 22 21 22 22 24 26 27 25 22 20 22 23 24 24 25 26 27 28 29 27 26 27 28 27 28 30 31 31 31 31 30 30 29 28 28 27 26 26 25 25 25 26 28 30 31 32 33 35 36 37 37 37 37 38 39 40 39 38 38 38
22 22 21 19 17 17 18 20 20 20 21 22 22 22 20 18 19 21 22 23 23 24 23 23 24 25 25 25 26 28 31 31 29 25 24 25 26 27 27 28 28 29 30 30 29 28 30 30 30 30 31 32 33 34 33 32 31 31 30 30 30 29 28 28 28 29 30 33 35 37 39 39 39 39 40 40 40 40 41 41 42 43 43 42 42
23 21 18 17 17 18 19 18 18 18 19 21 22 22 22 20 19 20 21 22 23 24 24 25 27 28 28 29 29 31 33 33 30 29 29 29 28 27 27 27 28 29 30 31 31 31 31 31 31 31 32 34 35 35 35 33 32 31 30 30 30 31 31 31 32 34 35 37 39 40 41 42 42 42 42 42 42 42 42 42 43 44 44 44 44
22 21 20 19 19 20 20 19 20 19 19 21 22 23 23 23 22 23 24 24 25 26 27 28 30 31 32 31 31 31 32 32 32 32 32 32 33 32 30 30 32 33 34 36 35 34 34 34 33 34 36 38 36 33 32 32 31 31 31 31 32 33 34 35 36 37 39 40 41 41 42 43 43 43 43 43 43 44 43 43 43 44 44 44 44
25 24 24 23 22 22 22 22 23 23 23 24 25 25 26 26 27 27 28 29 29 30 31 32 33 35 35 35 33 33 33 35 37 37 37 37 37 37 36 36 38 39 39 39 37 36 36 36 36 36 36 36 35 33 32 31 30 30 31 32 33 34 35 37 38 40 41 42 43 43 42 42 42 43 43 43 43 44 44 44 44 44 44 44 44
26 26 26 26 25 25 25 26 26 26 27 28 28 29 29 30 31 31 32 32 33 33 35 36 37 38 39 38 37 37 38 39 40 41 42 42 40 39 37 36 37 38 39 39 38 38 38 38 38 38 37 37 36 34 31 29 28 29 31 33 35 36 38 40 41 42 43 43 43 42 41 41 41 42 43 43 43 43 44 45 46 46 46 46 45
30 29 28 28 29 28 28 29 29 30 31 31 32 32 32 33 33 34 34 35 35 36 38 39 40 41 42 42 41 40 40 40 41 42 44 44 43 41 38 35 35 36 37 38 39 40 41 41 39 39 40 41 38 34 31 31 31 33 35 37 38 40 40 41 41 41 42 42 41 40 40 40 40 41 42 43 43 44 44 45 46 47 47 47 47
33 31 31 32 33 32 33 33 34 35 35 35 35 35 35 36 37 38 38 38 38 39 40 41 43 43 44 45 44 42 41 41 43 44 44 44 43 41 38 36 37 38 39 40 41 41 42 41 41 40 40 41 41 38 38 39 39 38 39 40 40 40 40 40 39 39 40 40 39 38 39 40 41 42 43 44 45 46 46 47 47 48 48 48 49
37 36 37 38 38 38 38 38 37 37 38 38 38 39 39 39 40 41 42 42 42 42 42 43 43 44 45 45 44 42 42 43 44 44 43 42 41 39 38 38 39 40 41 42 42 40 40 41 42 41 39 41 44 45 46 46 44 42 42 41 41 41 41 41 41 41 41 39 39 39 41 43 44 45 46 47 48 48 48 48 48 48 48 48 48
41 40 40 40 42 42 41 40 40 41 41 42 42 43 43 43 43 44 44 44 43 43 44 45 45 45 45 45 44 44 43 43 43 42 41 40 40 40 39 40 42 44 44 44 42 41 41 40 41 42 42 44 47 49 50 49 46 44 44 44 45 44 44 44 43 42 41 40 40 42 44 45 47 47 48 49 48 48 48 47 47 47 47 48 48
43 42 42 43 45 45 44 44 44 44 45 46 47 47 47 46 45 44 44 45 46 48 49 49 49 49 48 48 47 46 45 44 43 42 42 42 42 43 43 44 46 48 48 47 46 45 45 44 42 42 44 45 46 47 48 48 47 47 48 48 47 45 44 43 42 41 41 42 43 45 46 47 48 48 48 48 47 47 47 47 48 48 49 50 51
44 44 44 45 46 46 46 47 47 47 47 47 47 48 47 45 45 46 47 50 51 53 53 53 53 53 53 52 51 49 48 47 47 47 48 48 49 49 49 48 48 49 50 50 49 49 48 47 46 45 46 46 47 48 49 50 50 51 50 49 47 45 42 42 42 42 44 46 47 49 50 50 49 48 47 46 46 46 47 48 49 50 51 52 53
48 47 46 46 46 46 46 45 45 46 46 46 46 46 47 49 51 54 55 55 55 55 55 55 55 55 55 55 54 52 51 50 50 50 51 52 53 52 51 50 50 51 52 53 52 51 49 48 49 50 51 52 53 54 54 53 53 52 50 48 47 45 43 42 44 46 47 49 51 52 53 52 50 48 46 45 45 46 47 48 49 50 51 51 52
47 47 46 46 45 44 43 43 43 45 48 50 52 53 55 57 58 58 59 58 57 57 58 58 58 58 58 58 56 55 54 53 53 53 53 54 54 54 53 52 52 53 54 54 54 54 52 51 52 53 54 55 56 56 55 53 53 52 51 49 47 46 45 45 47 49 51 53 54 55 54 53 50 46 44 44 46 47 48 49 49 49 49 50 51
46 47 47 48 48 48 49 51 52 54 56 57 58 59 60 60 60 60 61 60 60 60 60 60 60 61 62 62 60 58 57 56 55 56 56 55 55 55 55 55 56 55 55 56 56 56 56 56 55 55 55 56 55 55 54 53 52 52 52 50 49 48 48 50 52 53 54 56 57 57 55 52 48 45 45 46 48 49 50 50 49 49 49 49 50
53 54 55 57 58 58 59 59 60 60 60 59 60 60 60 61 62 62 62 63 63 63 63 63 63 63 65 65 64 63 61 59 58 58 57 56 56 56 56 57 58 58 58 58 57 56 56 58 57 56 56 57 57 57 55 52 50 50 50 49 49 50 51 53 56 57 58 58 58 56 53 50 47 46 47 48 50 51 51 51 51 51 51 51 52
55 57 58 59 61 61 61 61 61 61 61 61 62 62 62 63 64 64 65 66 66 66 66 66 66 66 66 67 67 66 64 60 59 58 56 54 54 53 53 55 56 57 58 58 57 55 56 57 58 58 59 59 59 58 57 54 53 53 53 53 53 53 55 56 58 59 59 58 56 55 52 50 49 49 49 50 52 52 51 52 53 53 53 54 54
57 58 59 60 61 62 63 63 63 64 64 65 65 66 66 66 66 67 67 68 68 68 68 67 67 67 66 66 66 66 64 61 58 57 55 53 51 49 49 49 51 53 55 55 55 55 55 57 58 59 60 60 60 60 60 59 59 59 58 57 56 56 56 56 57 58 57 56 54 53 52 51 51 51 51 52 53 53 53 54 55 55 56 56 55
59 60 61 62 63 65 65 66 67 67 68 68 68 68 69 69 69 69 68 68 68 68 68 67 67 67 66 66 65 63 60 58 56 54 52 50 48 48 48 48 49 51 52 52 51 53 54 55 56 57 58 59 59 59 60 60 59 59 58 57 56 55 55 55 55 54 54 53 52 52 52 52 52 52 53 53 54 55 57 57 56 57 57 56 55
63 64 65 65 66 67 68 68 69 69 69 69 69 69 70 70 70 70 70 69 68 68 68 68 68 68 67 67 66 62 58 55 54 53 52 49 48 48 49 50 50 49 50 49 49 49 50 51 53 54 56 57 58 59 58 56 54 53 54 54 55 55 54 53 52 52 52 52 53 53 53 53 54 54 55 56 57 58 59 58 58 58 57 55 53
64 65 66 67 67 68 68 69 69 69 70 70 70 71 71 71 71 71 71 71 71 71 71 70 70 69 68 67 66 64 59 55 54 55 53 51 49 48 47 48 50 50 51 51 50 49 48 49 50 51 52 53 54 55 54 52 51 51 52 53 54 53 52 51 52 52 53 53 54 54 54 55 55 56 57 57 58 59 59 59 59 57 55 53 50
66 67 67 68 68 69 69 70 70 70 70 70 70 70 69 69 69 69 69 70 70 70 69 69 68 67 66 65 63 63 60 56 56 56 54 52 50 47 47 50 50 48 46 46 46 46 46 46 46 46 48 50 50 51 51 50 51 53 54 54 54 52 51 51 51 51 51 52 52 53 53 54 55 56 56 56 57 58 58 58 56 53 50 48 45
66 66 66 66 66 66 66 65 65 64 64 64 63 63 63 63 63 63 63 64 65 65 65 66 65 64 63 60 58 58 59 56 56 56 54 52 48 45 45 48 46 42 41 43 44 45 46 46 46 46 47 48 48 48 47 47 48 49 49 50 52 52 52 52 52 51 52 52 52 52 53 53 54 54 55 56 56 55 53 51 49 47 45 43 41
60 60 60 59 59 58 58 57 57 57 57 57 57 57 58 58 58 59 59 59 60 61 61 62 62 62 61 59 57 58 58 57 55 54 52 49 46 45 45 43 41 42 45 45 43 42 42 43 46 47 48 47 46 45 45 46 46 47 47 48 49 50 51 52 53 53 53 52 53 53 54 54 54 53 53 52 49 47 45 43 42 41 40 39 38
53 53 53 53 52 52 51 51 50 50 50 50 50 50 51 51 51 51 51 51 52 53 54 54 55 55 55 55 55 55 55 55 55 54 52 50 50 53 52 47 43 45 46 41 36 35 37 38 39 40 40 40 40 40 41 43 44 46 46 47 47 48 49 51 52 53 53 54 54 54 53 51 50 47 45 42 39 38 37 37 37 37 37 37 37
48 47 46 45 44 43 42 41 41 41 41 41 42 42 42 43 43 43 44 45 46 47 47 48 48 48 48 48 48 48 48 50 52 53 54 54 54 55 54 49 44 45 44 40 37 39 40 40 40 38 36 36 37 38 40 42 43 46 48 49 51 52 52 53 52 52 52 51 50 48 46 43 40 37 35 33 32 32 33 34 35 35 36 36 38
38 37 36 35 33 33 33 33 34 35 35 36 37 37 38 39 41 42 43 45 46 47 47 46 45 44 43 42 40 40 41 44 48 51 54 58 58 55 51 47 44 43 43 41 42 45 46 45 45 44 42 42 42 44 46 47 48 49 49 50 51 52 51 49 47 45 43 41 39 37 35 33 31 29 28 27 27 29 31 32 33 35 36 37 37
29 28 27 27 27 28 30 31 31 32 32 33 34 37 39 42 44 46 48 49 50 52 52 50 47 45 43 40 38 36 36 38 42 44 49 57 60 57 52 47 39 35 35 35 36 38 39 39 39 40 40 41 42 44 45 45 45 45 43 42 42 42 40 39 37 35 33 31 30 29 28 26 25 24 23 23 25 27 29 32 34 35 36 34 31
23 23 24 25 27 28 29 30 29 30 31 33 35 39 43 46 49 51 52 53 54 54 55 54 51 48 46 42 38 36 34 34 36 36 40 48 55 57 57 52 42 34 32 32 31 31 31 31 34 37 39 40 41 42 42 41 39 37 34 33 34 34 33 31 30 28 27 26 25 25 24 22 20 19 19 21 23 26 29 32 33 33 30 26 23
22 23 24 25 27 27 27 28 29 30 32 35 38 42 46 48 49 49 50 50 50 49 50 51 50 49 47 44 40 36 33 31 32 32 32 37 45 51 56 57 54 46 38 33 33 34 33 34 38 41 41 43 44 43 40 37 35 32 31 31 32 32 30 28 27 25 24 24 23 22 20 18 16 16 17 19 21 24 28 31 31 27 22 19 18
22 23 24 25 25 25 26 27 29 32 34 37 41 45 46 45 43 41 40 40 39 39 39 40 41 42 43 41 38 34 30 29 29 28 27 30 36 44 51 56 59 57 50 43 41 41 39 38 40 41 41 43 43 40 37 34 33 32 32 33 32 30 28 26 25 24 23 22 20 18 16 15 14 14 16 18 20 22 26 28 27 23 18 16 15
22 22 23 23 23 24 26 28 30 32 34 38 43 45 43 39 36 33 32 33 33 32 30 29 30 32 35 34 32 30 29 28 28 27 26 26 29 35 43 50 53 52 49 48 48 44 40 38 38 37 37 37 36 33 33 34 34 34 34 33 31 29 27 25 24 23 21 19 17 16 15 14 13 14 15 17 18 21 23 24 24 21 17 16 16
21 22 23 23 23 24 26 28 29 31 34 39 44 43 36 31 28 27 28 30 28 23 20 19 20 21 22 23 23 24 26 27 27 27 27 26 26 27 32 39 41 39 38 41 42 39 35 34 34 34 34 33 31 31 33 35 35 35 34 33 30 27 25 24 22 21 19 17 16 15 14 13 12 13 15 16 17 19 20 21 22 21 17 16 17
21 22 22 22 23 24 25 26 28 30 34 41 42 36 27 22 21 23 23 21 15 9 8 9 11 14 17 20 22 22 23 25 26 25 22 21 21 22 26 32 34 33 34 37 39 38 37 35 34 34 35 35 33 34 36 36 36 35 34 31 28 26 24 22 21 19 17 17 16 15 13 12 13 14 14 15 16 18 19 19 20 20 17 14 14
18 19 19 20 21 22 23 24 26 29 35 40 37 28 20 17 17 17 14 6 2 7 9 10 13 16 20 23 23 23 24 25 25 23 18 15 16 20 26 31 31 30 32 33 34 35 36 34 32 33 34 34 34 35 36 36 36 36 34 29 26 24 23 21 19 18 18 18 17 15 13 13 13 14 14 14 15 16 17 18 18 18 17 17 15
14 15 16 17 19 20 21 23 24 28 35 38 31 21 16 13 11 10 7 3 7 7 8 12 16 19 21 22 22 22 24 24 24 23 22 22 23 25 29 32 30 27 28 28 28 30 30 28 27 29 31 32 33 35 36 37 37 35 30 26 24 23 21 20 19 19 19 18 17 15 14 13 14 14 14 13 13 14 16 17 17 17 17 18 19
11 12 14 15 17 18 19 21 22 27 34 34 25 16 13 10 7 6 5 2 7 7 7 11 14 18 20 21 21 21 21 22 23 23 24 28 30 29 30 31 28 24 24 25 25 25 24 24 25 28 30 31 33 34 36 36 34 29 26 24 22 21 20 20 19 19 19 18 17 16 14 14 14 14 14 13 12 13 14 16 16 16 17 18 19
11 13 14 15 16 17 18 19 21 25 32 30 21 13 11 9 6 4 4 2 6 9 10 10 10 12 13 14 16 18 18 18 19 19 20 25 29 29 29 29 26 24 24 24 23 20 20 21 23 25 27 28 28 30 31 30 27 24 22 21 20 20 20 20 20 20 19 19 18 17 15 15 14 14 13 12 12 12 13 14 15 16 17 17 18
12 13 14 16 17 17 17 17 18 23 29 28 20 13 11 10 7 5 3 2 6 9 10 9 6 6 7 7 9 11 12 13 14 15 15 18 23 26 26 25 24 24 25 23 20 19 19 19 20 21 22 23 24 25 25 24 22 21 20 20 20 20 20 19 19 20 20 20 19 17 16 15 15 14 13 12 11 12 12 13 14 15 16 17 17
12 13 14 16 17 18 17 16 16 20 25 26 22 16 13 11 9 6 2 3 6 7 7 6 5 5 5 6 7 7 8 11 15 16 15 15 20 24 25 24 23 24 24 21 19 18 18 18 18 19 21 22 22 22 21 21 20 19 19 19 19 19 19 19 19 20 20 20 19 18 17 16 15 15 14 12 12 11 11 12 13 14 15 17 17
12 13 14 15 17 18 18 17 15 16 20 23 22 18 15 13 10 7 2 2 3 5 6 6 5 5 6 7 7 7 8 11 15 17 17 17 18 21 23 23 22 22 22 19 17 16 16 16 17 18 20 21 21 20 19 19 18 18 19 19 18 18 18 18 19 20 20 20 20 19 18 17 16 15 14 13 12 12 11 11 12 13 14 16 17
12 13 14 15 16 18 19 18 16 14 15 17 19 18 16 14 12 9 6 2 2 4 6 7 7 8 9 10 11 11 11 13 16 18 19 20 20 20 20 19 19 19 20 18 15 13 14 15 16 17 19 20 20 19 18 18 18 18 18 18 17 17 18 19 19 20 21 20 20 20 19 18 17 16 15 14 13 12 12 11 12 12 13 15 16
12 13 14 15 16 17 18 19 18 15 13 13 13 14 14 13 12 10 8 6 4 2 3 5 7 7 8 8 9 10 11 13 16 18 20 21 23 23 22 20 19 18 17 16 15 15 15 16 16 17 18 19 18 17 18 18 19 18 18 17 17 17 18 19 19 20 20 20 20 20 19 19 18 17 16 14 13 13 12 12 12 12 13 14 15
12 12 13 14 15 16 17 18 18 18 16 14 12 10 9 9 9 9 8 7 5 4 3 2 3 4 4 4 4 4 5 7 10 12 14 17 20 23 23 22 21 20 18 16 16 16 16 16 17 17 17 17 17 17 18 19 19 18 18 17 17 17 18 18 19 20 20 21 20 20 19 19 19 18 16 15 14 13 13 12 12 12 13 14 15
Wind_Direction
281 281 280 279 276 272 270 272 275 271 262 255 248 241 233 231 235 243 248 254 259 262 264 263 258 253 252 257 264 269 272 274 275 277 280 284 288 291 292 292 292 293 293 294 294 295 295 294 294 293 292 290 289 287 287 286 284 282 280 281 282 283 285 286 288 289 288 288 287 287 287 288 290 292 293 295 296 297 298 300 301 302 302 302 300
285 281 278 273 272 272 270 270 271 262 249 241 238 233 231 236 243 248 251 254 256 258 260 259 255 254 255 259 263 266 267 270 273 276 278 281 284 287 288 289 289 290 292 293 294 295 295 294 293 292 290 289 288 288 287 286 285 284 283 283 283 281 281 283 286 287 288 290 291 292 292 293 294 294 294 295 294 295 296 297 298 298 299 299 299
285 283 280 276 277 277 271 265 257 244 236 236 236 234 235 241 248 251 251 250 252 255 256 257 257 256 257 259 261 262 264 267 271 274 276 277 277 278 280 283 284 286 288 291 293 293 293 292 291 289 287 285 285 285 284 283 283 284 285 284 283 282 282 282 283 283 285 288 291 293 294 294 294 294 295 295 295 294 295 295 295 295 296 296 296
280 275 274 278 289 288 273 256 242 236 238 240 238 236 240 245 248 248 247 248 251 254 255 256 257 256 257 259 260 263 266 269 272 275 275 274 272 271 273 276 279 282 286 290 292 291 290 290 288 286 284 282 281 280 278 280 281 282 282 283 281 280 282 283 283 283 285 287 289 291 291 292 293 294 296 297 297 296 296 295 294 294 294 293 293
283 272 269 275 288 289 270 252 244 246 248 245 242 242 244 246 246 246 247 250 253 254 256 256 256 257 257 258 260 264 269 274 277 278 277 274 273 273 274 276 279 282 287 290 290 290 290 289 287 284 282 279 278 277 276 277 279 281 282 282 280 280 280 281 282 284 286 291 296 298 296 295 296 298 301 302 299 297 296 294 293 293 293 292 291
281 269 269 272 274 274 263 255 255 256 252 247 245 247 247 243 242 243 246 249 252 253 254 256 257 259 259 260 263 268 272 274 276 279 281 279 278 277 277 279 280 282 283 283 283 285 286 287 285 281 279 276 274 274 274 274 276 280 284 282 280 279 280 279 280 283 285 289 296 298 297 296 295 296 298 298 298 297 295 293 292 291 291 290 289
269 261 265 269 269 267 261 256 254 251 247 243 244 250 252 247 244 246 249 251 252 253 255 258 261 263 265 268 271 273 273 272 271 275 281 282 279 277 278 280 281 282 282 281 281 282 282 281 279 277 276 274 271 269 269 270 272 276 280 279 276 276 277 277 278 280 281 284 289 290 288 288 290 292 292 291 292 292 292 291 290 288 287 287 286
263 264 269 272 272 267 263 260 256 251 246 243 245 252 257 254 251 251 253 255 256 257 260 264 268 270 273 276 276 272 270 271 273 276 282 283 278 275 276 279 283 284 285 286 286 285 282 279 277 275 274 271 268 266 265 266 269 272 274 273 271 270 270 272 273 275 279 284 289 290 288 286 287 288 289 289 288 287 287 288 288 287 285 284 284
268 270 272 272 271 268 266 262 257 252 249 249 254 259 264 264 259 255 256 259 260 260 262 266 268 271 273 274 273 273 274 276 277 278 279 279 278 278 278 279 281 283 285 287 287 286 284 283 282 279 276 271 268 266 264 264 265 267 268 268 267 267 267 269 272 276 281 286 290 292 292 290 289 287 286 286 286 285 285 285 286 286 285 285 285
270 269 265 265 267 267 265 257 248 246 249 252 256 260 264 267 265 261 259 259 260 261 263 265 267 269 272 272 274 279 280 278 278 279 278 277 280 284 284 281 281 284 286 287 288 286 284 284 284 282 279 277 273 267 263 262 263 264 265 266 266 267 270 272 276 280 285 288 290 291 292 291 290 289 288 287 286 285 285 285 284 285 285 285 285
269 268 264 264 265 262 258 254 251 252 253 254 255 257 261 263 264 263 262 261 263 264 266 267 269 271 273 275 278 282 281 277 278 282 282 280 282 284 283 281 282 285 284 283 284 284 283 283 284 283 281 278 271 263 259 260 262 264 266 268 269 271 273 276 279 283 286 288 289 290 290 288 288 288 287 286 286 286 286 285 285 284 284 284 284
264 266 266 265 262 259 256 256 258 258 257 258 259 260 262 264 265 266 266 267 268 270 270 272 272 274 276 278 279 280 279 277 279 283 285 283 283 282 281 280 280 281 279 279 281 283 282 281 280 281 280 274 266 261 259 258 260 265 268 271 273 274 277 280 283 285 287 288 288 288 287 286 286 286 285 284 284 285 285 285 284 284 284 284 284
261 262 264 261 258 258 256 255 258 260 260 260 260 261 263 265 266 267 268 270 271 272 273 274 274 275 277 277 277 277 277 276 278 282 284 284 283 282 280 278 276 276 275 277 280 283 284 282 278 276 275 271 267 264 261 262 267 272 274 276 278 280 283 285 286 287 287 287 287 287 286 285 285 286 285 284 284 284 284 284 284 284 284 285 285
262 262 260 256 254 254 254 256 260 262 262 262 262 263 264 266 267 268 269 270 271 272 273 273 275 276 276 277 277 277 275 274 275 278 279 280 281 281 279 276 272 272 273 275 278 281 284 283 279 275 272 267 261 259 263 272 280 282 281 281 283 285 286 287 286 285 285 285 286 286 286 287 287 286 286 287 287 286 285 285 285 284 284 285 285
261 259 256 255 255 254 256 260 262 263 264 265 264 264 265 266 266 267 268 268 269 271 272 273 275 276 277 278 279 278 276 276 276 275 274 274 274 274 273 273 272 274 277 279 281 282 283 281 280 278 273 262 256 259 271 281 286 286 285 285 287 288 288 287 286 284 284 284 286 287 288 289 289 289 289 290 290 290 289 288 287 286 286 285 285
263 258 256 258 258 258 259 262 263 264 265 265 265 265 266 265 265 266 268 269 269 270 272 273 274 274 275 277 277 277 277 277 277 275 273 271 269 269 270 271 272 275 280 282 283 283 281 280 279 277 269 259 257 264 275 283 285 286 286 288 290 290 288 286 285 284 283 285 287 289 291 291 292 292 292 292 292 291 291 290 289 289 288 287 286
264 259 255 256 258 259 261 264 265 266 267 267 266 265 265 265 266 267 269 270 272 273 274 275 275 275 275 275 274 274 274 275 274 273 272 270 269 270 272 273 274 276 279 280 280 280 279 280 279 274 267 263 263 268 274 279 281 282 285 287 288 287 285 283 281 281 282 285 288 291 292 293 292 292 291 291 291 291 291 291 291 291 290 289 288
258 255 254 255 257 259 261 263 265 266 268 268 267 267 267 267 268 269 270 273 276 278 279 279 278 278 277 277 276 276 275 274 273 273 272 271 270 272 274 274 274 276 277 277 278 278 278 279 279 276 270 268 269 270 272 274 277 280 283 284 284 283 279 278 277 279 282 287 290 293 295 294 293 291 290 289 288 288 288 290 291 291 290 290 290
252 253 254 255 257 258 260 263 265 267 269 269 269 268 268 268 270 272 274 277 279 280 280 280 280 280 280 279 279 279 278 277 275 274 273 273 273 273 274 274 272 273 275 276 277 278 278 278 277 276 273 272 272 272 274 276 278 280 282 282 282 280 277 276 278 282 286 290 293 295 296 296 293 290 288 287 285 285 287 290 291 292 292 292 291
249 251 252 251 252 254 257 259 262 265 268 270 270 271 271 273 276 278 279 279 280 280 280 280 280 280 279 279 280 280 279 279 277 275 274 274 274 274 274 273 271 272 274 275 276 276 277 276 275 274 273 272 273 275 277 278 279 280 281 282 281 279 276 277 280 285 290 293 295 296 296 295 292 288 285 284 284 286 290 293 293 293 292 292 292
245 245 245 246 247 250 253 256 260 263 267 270 272 274 275 277 279 280 280 280 280 279 279 279 279 279 278 278 279 279 279 279 278 276 275 275 274 274 273 271 270 271 272 274 275 276 277 276 274 273 273 273 274 276 277 278 280 281 281 280 279 277 276 277 282 287 290 293 294 294 294 293 288 283 281 282 283 285 289 291 292 291 290 290 290
249 251 253 255 257 260 263 266 269 271 272 274 275 276 277 277 278 278 278 278 277 278 278 278 278 279 278 278 277 278 278 278 278 277 277 275 274 273 271 270 269 269 269 271 273 275 277 276 274 272 273 273 274 275 277 279 280 280 279 278 277 277 278 280 283 287 290 291 292 291 292 290 285 280 280 283 285 287 288 290 291 291 290 290 289
261 263 265 267 269 270 272 273 274 275 276 276 276 276 276 276 276 276 276 276 275 275 276 277 277 278 278 278 277 277 277 278 277 277 276 275 274 273 271 270 269 268 267 268 269 270 272 272 271 271 271 271 273 274 275 276 276 275 275 276 277 278 279 281 284 286 288 289 289 289 289 288 283 281 283 286 288 290 291 293 294 294 295 294 293
268 269 270 271 273 274 275 276 276 276 276 275 275 275 275 275 275 275 275 275 275 275 275 276 276 277 277 278 277 277 277 277 277 276 276 275 273 272 270 269 268 267 267 267 267 267 266 266 266 267 268 268 270 271 272 271 270 271 273 276 277 279 281 282 284 286 287 288 287 287 287 286 284 283 285 288 289 291 294 296 297 298 298 297 296
272 272 273 274 274 275 276 277 277 277 276 276 276 276 276 276 276 276 276 276 276 275 275 275 275 275 276 276 276 277 277 276 276 276 275 274 271 269 268 267 267 266 266 266 266 265 263 263 263 264 264 265 267 268 269 270 271 272 275 276 278 279 280 281 283 284 285 285 284 284 285 285 285 285 286 287 289 292 295 297 298 298 298 297 296
273 274 274 274 275 276 276 277 277 277 277 277 277 277 277 277 277 276 276 276 276 276 275 275 275 275 274 275 275 276 276 276 276 275 274 272 270 269 268 268 268 267 266 265 264 263 262 262 263 263 263 264 265 266 267 269 271 273 274 276 276 277 279 280 281 281 281 281 281 282 283 284 285 285 286 288 291 294 296 297 297 296 296 296 295
274 274 274 275 275 275 276 276 277 277 277 277 277 277 277 277 277 277 277 276 275 275 274 274 274 273 273 274 274 274 274 274 274 272 270 270 270 270 270 269 267 266 265 264 264 263 262 262 263 263 263 263 264 265 266 268 271 272 274 275 276 278 279 279 278 278 278 279 279 280 281 283 284 286 288 290 292 294 295 296 296 295 295 294 294
274 274 274 275 275 275 275 276 276 276 276 277 277 277 277 276 276 276 275 275 274 274 274 273 273 273 272 272 272 271 270 268 267 268 268 268 268 268 269 269 267 267 268 267 265 264 264 264 264 265 265 266 266 267 267 267 269 270 272 274 276 277 278 277 277 277 278 278 279 280 282 284 285 287 288 290 292 294 294 295 295 294 294 293 293
273 274 274 274 275 275 275 275 275 275 275 275 275 275 275 274 274 274 273 272 272 272 272 271 271 270 270 269 269 268 266 261 259 260 263 266 264 262 264 267 268 267 266 264 264 265 266 266 266 267 267 267 268 269 269 268 269 270 271 273 274 274 274 275 276 276 278 279 281 283 284 285 286 288 289 291 292 293 294 294 293 293 293 292 292
274 274 274 275 275 275 275 275 275 274 274 274 273 273 272 272 272 271 271 270 270 270 269 269 268 267 267 266 264 263 262 258 254 253 256 261 260 257 259 263 263 262 262 262 264 266 265 263 263 264 265 265 266 266 267 267 268 271 273 274 274 274 274 274 276 278 279 282 284 285 286 287 288 289 290 292 292 292 292 291 291 290 290 291 291
275 275 275 275 276 276 276 276 276 275 275 274 273 273 272 272 272 272 271 271 271 270 269 269 268 267 266 264 261 260 260 257 253 249 249 250 249 247 250 256 260 264 267 265 262 261 261 261 262 261 262 265 268 269 269 269 270 273 275 276 278 278 278 278 279 281 282 284 286 287 287 288 289 290 291 291 291 290 289 288 288 289 290 291 292
277 277 277 277 277 278 278 277 277 277 276 276 276 276 275 274 273 273 273 272 272 271 270 269 268 267 266 263 261 259 257 254 251 246 242 242 242 241 243 249 257 264 263 256 251 254 258 260 261 261 261 265 270 272 274 275 275 276 278 280 282 284 285 285 285 285 285 286 286 286 287 288 289 289 289 289 287 287 286 287 289 291 292 292 292
279 279 279 279 279 279 279 279 279 279 279 279 280 280 280 279 277 276 275 274 272 271 270 269 268 267 266 265 263 260 255 252 249 243 238 236 238 238 239 242 250 255 253 246 246 254 259 260 261 263 265 268 270 273 275 277 278 280 283 284 286 286 287 287 286 285 285 285 285 285 286 287 287 287 286 285 285 286 287 289 290 291 291 291 291
280 280 279 280 280 280 281 282 282 283 283 284 284 284 284 283 281 279 277 275 273 271 269 267 266 266 266 265 264 262 257 252 248 243 236 234 234 236 236 238 245 253 255 252 252 256 259 262 264 265 269 273 275 277 278 279 281 283 285 286 286 285 284 284 284 283 284 284 284 284 284 284 284 284 284 284 285 287 289 290 291 292 293 293 293
279 278 278 280 281 283 284 284 285 285 286 287 287 288 288 287 284 281 277 274 271 269 267 266 264 263 263 263 263 262 259 255 250 246 240 236 234 234 233 232 238 248 252 252 256 259 259 261 265 268 272 275 277 278 280 282 284 284 283 283 283 284 284 284 284 284 284 283 282 280 280 280 281 280 280 282 285 289 292 295 297 297 297 295 292
277 277 279 282 284 286 286 286 286 287 288 289 290 291 291 289 286 282 278 274 270 267 265 263 261 259 258 259 259 259 257 255 252 250 247 241 236 234 232 228 227 232 238 244 252 257 258 262 269 272 273 275 275 277 279 282 283 280 279 281 283 285 285 286 284 283 283 280 278 278 279 278 275 273 277 284 291 296 301 304 304 302 298 293 288
278 280 282 284 286 287 287 288 289 290 291 292 293 295 294 292 287 283 278 275 272 269 266 262 258 255 254 254 254 254 253 251 250 251 251 245 238 235 233 230 228 229 234 240 248 254 261 269 274 274 273 272 273 275 277 278 275 273 276 283 286 284 283 284 283 281 279 278 277 278 274 267 265 271 282 292 299 305 310 314 313 307 298 290 285
279 280 282 285 287 288 289 290 292 294 296 298 301 303 301 297 292 286 281 278 275 273 269 264 258 252 247 246 247 248 246 245 246 248 249 245 238 234 233 232 233 236 240 244 251 259 265 271 273 271 270 269 269 270 270 270 268 270 277 286 287 282 279 280 279 277 276 275 274 268 259 255 264 278 290 298 305 311 318 322 322 313 299 288 285
277 279 281 285 287 289 291 293 295 298 302 308 311 311 307 301 295 289 284 280 277 273 269 263 255 246 241 239 239 239 239 240 242 243 243 243 243 239 234 232 234 239 243 248 254 259 262 264 265 265 264 265 266 264 263 265 268 272 280 286 285 279 275 275 274 273 273 269 261 251 247 254 270 284 294 303 309 314 320 328 331 325 307 290 287
277 279 282 285 288 291 294 296 300 305 311 317 318 315 309 303 298 293 288 284 279 272 263 255 244 235 234 234 229 227 232 236 237 240 245 247 251 250 239 230 228 230 235 241 246 250 252 255 256 257 259 261 262 261 262 266 270 275 282 286 281 274 271 271 270 268 265 256 244 238 244 259 275 287 296 305 311 313 318 331 341 341 326 302 290
278 280 283 286 291 294 297 301 306 312 319 323 322 318 311 306 303 299 295 289 276 248 223 222 216 210 216 221 220 221 229 235 236 242 250 256 261 255 234 217 215 221 227 234 239 244 248 249 249 250 254 258 260 262 265 268 272 278 283 283 275 267 267 267 263 259 251 240 233 237 247 262 276 286 296 306 311 312 317 329 341 348 346 331 308
282 285 288 291 294 297 301 306 313 319 325 328 327 322 314 310 309 311 313 310 189 166 170 176 184 196 210 218 221 224 232 238 241 242 242 241 248 243 223 210 211 219 224 228 234 241 244 246 245 247 251 255 259 263 266 270 276 281 282 276 267 262 262 260 255 247 237 230 230 238 249 261 275 284 293 304 310 312 317 326 335 346 358 0 348
294 297 297 298 301 303 307 313 318 326 332 333 331 325 320 320 324 331 344 92 140 156 173 180 190 205 217 222 226 233 240 243 246 247 237 223 222 225 220 214 215 219 221 225 232 239 244 248 249 249 251 256 261 265 270 274 279 280 275 266 259 257 255 252 244 236 229 227 231 240 249 260 273 282 290 302 310 312 317 323 330 342 356 4 2
317 317 316 314 314 313 315 319 325 333 339 341 337 329 329 336 346 353 356 153 174 190 197 193 202 216 225 230 237 246 251 251 251 250 238 223 217 219 219 217 218 221 223 227 235 243 250 255 255 254 257 262 266 270 274 277 277 271 261 254 252 249 246 241 235 229 227 228 232 239 248 258 270 279 288 298 307 314 319 324 329 338 350 358 0
336 336 336 335 332 328 326 327 332 341 348 350 347 341 341 349 359 356 342 238 200 203 199 191 198 216 229 239 247 252 256 254 248 240 228 218 214 214 215 218 224 227 224 227 236 246 250 252 254 258 262 266 268 271 273 271 265 255 248 245 243 239 235 232 229 227 228 230 233 239 247 256 267 277 285 294 304 313 321 326 331 336 343 350 354
343 344 346 349 348 343 338 336 341 351 358 1 -0 356 357 4 9 359 340 194 181 188 191 192 204 227 240 256 263 262 258 245 225 210 204 209 213 214 216 222 227 225 222 226 237 244 245 248 255 260 263 266 268 269 265 257 248 242 238 236 232 230 228 229 229 229 230 232 235 240 246 254 264 273 279 288 299 310 318 325 332 337 340 343 346
344 347 351 355 357 356 352 348 349 358 6 10 10 8 8 14 19 16 24 157 165 177 191 200 217 237 250 269 284 281 261 230 210 203 205 211 213 215 221 227 227 223 222 226 234 238 242 249 255 259 262 267 268 263 254 244 238 234 230 227 224 224 227 230 232 233 233 235 238 242 247 253 262 268 274 281 292 303 313 323 331 338 340 340 341
347 351 354 357 0 3 3 0 356 0 9 16 18 18 18 21 25 29 45 169 198 210 207 204 212 234 250 266 281 283 265 239 227 226 230 226 216 213 217 222 222 221 220 221 225 234 243 249 253 257 262 266 264 256 245 237 232 228 224 221 221 225 230 234 236 236 237 238 241 244 248 254 260 266 270 276 284 295 307 319 328 336 339 339 339
348 352 354 357 1 6 8 8 4 1 6 15 22 25 27 29 31 31 31 12 296 254 236 234 245 258 265 271 275 275 266 253 246 244 244 239 231 225 222 222 221 221 221 222 228 238 244 248 252 258 261 261 257 249 239 232 229 224 220 220 224 230 234 237 238 239 240 242 244 247 250 255 260 265 268 272 279 289 300 310 321 330 336 338 339
347 351 354 357 1 5 9 12 12 8 3 5 13 21 28 33 34 34 32 26 11 333 274 259 262 270 277 279 277 273 264 255 251 250 248 245 242 240 237 235 233 233 234 236 240 243 244 247 253 257 257 255 249 241 234 230 226 221 219 224 229 234 237 239 240 242 243 244 246 249 252 256 261 265 268 271 277 285 294 303 314 324 330 335 338
346 349 352 356 359 4 8 11 15 16 13 7 2 3 10 19 27 30 31 30 27 23 13 348 320 314 309 292 269 262 264 258 249 244 241 239 239 241 243 244 243 243 245 245 240 237 238 244 252 256 254 248 242 237 233 229 223 220 223 229 234 237 240 242 243 244 246 247 249 252 254 258 262 265 267 270 275 281 288 296 306 315 322 328 332
Height
5745 5745 5746 5747 5748 5749 5750 5751 5751 5751 5752 5753 5754 5755 5756 5757 5757 5758 5758 5759 5759 5760 5760 5760 5760 5760 5760 5760 5761 5761 5761 5761 5762 5762 5763 5763 5763 5764 5764 5764 5764 5764 5764 5764 5764 5764 5764 5764 5764 5763 5763 5763 5762 5762 5762 5762 5761 5761 5761 5760 5760 5760 5760 5760 5760 5760 5760 5760 5760 5760 5760 5760 5760 5760 5760 5760 5760 5759 5759 5759 5759 5758 5758 5758 5758
5742 5742 5743 5744 5745 5745 5746 5747 5747 5748 5749 5751 5752 5753 5754 5755 5755 5756 5756 5756 5757 5757 5757 5758 5758 5758 5758 5759 5759 5759 5759 5760 5760 5760 5761 5762 5762 5762 5762 5763 5763 5763 5762 5762 5762 5762 5762 5762 5762 5761 5761 5761 5761 5761 5761 5760 5760 5760 5759 5759 5759 5759 5759 5758 5758 5758 5758 5758 5758 5758 5758 5758 5758 5758 5758 5758 5758 5757 5757 5757 5757 5757 5756 5756 5755
5738 5738 5739 5740 5741 5741 5742 5743 5744 5746 5747 5749 5750 5751 5751 5752 5752 5753 5753 5754 5754 5754 5754 5755 5755 5756 5756 5757 5757 5758 5758 5758 5758 5759 5759 5760 5760 5760 5761 5761 5761 5761 5761 5760 5760 5760 5760 5759 5759 5760 5760 5760 5760 5759 5759 5759 5759 5758 5758 5758 5757 5757 5757 5757 5757 5756 5756 5756 5756 5756 5756 5756 5756 5756 5756 5756 5755 5755 5755 5755 5754 5754 5754 5754 5753
5733 5734 5735 5736 5737 5737 5738 5740 5742 5744 5745 5747 5747 5748 5748 5748 5749 5750 5750 5751 5751 5751 5752 5752 5753 5754 5755 5755 5756 5756 5756 5757 5757 5757 5757 5757 5758 5758 5758 5759 5759 5759 5759 5758 5758 5758 5757 5757 5757 5757 5757 5757 5758 5757 5757 5758 5757 5757 5757 5757 5756 5755 5755 5755 5755 5754 5754 5754 5754 5754 5754 5754 5754 5754 5754 5754 5753 5752 5753 5753 5751 5751 5752 5752 5751
5731 5731 5731 5732 5733 5735 5736 5738 5741 5742 5743 5744 5744 5744 5744 5745 5746 5746 5747 5748 5748 5749 5749 5750 5751 5752 5752 5753 5754 5754 5755 5755 5755 5755 5755 5755 5755 5756 5756 5756 5757 5757 5756 5756 5756 5755 5755 5755 5755 5754 5754 5754 5754 5754 5754 5755 5754 5754 5755 5755 5754 5753 5753 5753 5753 5752 5752 5752 5752 5752 5752 5751 5752 5752 5751 5751 5750 5750 5750 5750 5749 5749 5749 5749 5748
5732 5731 5729 5728 5729 5732 5734 5736 5738 5739 5739 5740 5740 5741 5741 5741 5742 5743 5744 5745 5746 5746 5747 5748 5748 5749 5750 5751 5751 5752 5752 5752 5752 5753 5753 5753 5754 5754 5754 5754 5754 5754 5753 5752 5752 5752 5752 5752 5752 5752 5751 5751 5751 5751 5751 5751 5751 5751 5752 5752 5751 5751 5750 5750 5750 5750 5750 5750 5749 5749 5749 5749 5749 5749 5749 5748 5747 5747 5747 5747 5747 5746 5745 5746 5745
5731 5731 5730 5727 5727 5729 5730 5732 5734 5736 5736 5736 5737 5738 5739 5740 5741 5741 5742 5743 5743 5744 5745 5746 5747 5747 5748 5749 5749 5749 5749 5748 5749 5749 5750 5751 5752 5752 5752 5752 5751 5750 5749 5749 5749 5749 5749 5749 5748 5748 5748 5748 5748 5748 5748 5748 5748 5748 5749 5749 5749 5748 5748 5748 5748 5747 5747 5747 5747 5747 5747 5747 5746 5746 5746 5746 5745 5744 5743 5742 5743 5743 5742 5742 5742
5729 5729 5729 5728 5728 5729 5729 5729 5731 5733 5733 5734 5734 5735 5736 5738 5739 5740 5740 5741 5742 5743 5744 5745 5745 5745 5746 5746 5746 5745 5744 5744 5745 5746 5748 5748 5749 5749 5749 5748 5747 5746 5745 5745 5745 5745 5744 5744 5744 5745 5745 5745 5745 5745 5745 5745 5745 5745 5745 5745 5745 5745 5745 5745 5744 5744 5744 5744 5744 5744 5744 5744 5744 5743 5742 5741 5741 5740 5739 5738 5738 5738 5738 5737 5736
5726 5725 5725 5726 5728 5729 5728 5728 5729 5730 5731 5732 5732 5732 5734 5735 5737 5738 5738 5739 5740 5741 5742 5742 5742 5743 5743 5742 5742 5742 5741 5741 5742 5743 5744 5745 5745 5745 5745 5745 5744 5743 5741 5740 5741 5741 5740 5740 5740 5741 5741 5741 5742 5741 5741 5742 5742 5742 5742 5742 5742 5742 5742 5741 5741 5741 5741 5740 5740 5739 5739 5738 5739 5739 5738 5737 5737 5736 5735 5734 5733 5732 5732 5732 5731
5721 5721 5722 5723 5725 5726 5725 5725 5726 5728 5729 5730 5730 5731 5731 5733 5734 5735 5736 5737 5737 5738 5739 5739 5739 5739 5739 5739 5740 5740 5738 5738 5739 5740 5741 5741 5742 5742 5742 5741 5740 5738 5737 5736 5737 5737 5736 5736 5736 5736 5737 5737 5737 5737 5738 5738 5738 5738 5738 5738 5738 5738 5738 5738 5737 5737 5736 5736 5736 5735 5734 5733 5733 5733 5733 5732 5732 5731 5731 5730 5729 5728 5727 5727 5726
5718 5718 5719 5720 5722 5722 5723 5723 5723 5725 5726 5727 5728 5728 5729 5729 5730 5731 5732 5733 5733 5734 5735 5735 5735 5735 5735 5735 5737 5736 5735 5735 5736 5738 5738 5738 5738 5738 5738 5737 5736 5735 5734 5733 5733 5733 5733 5732 5732 5732 5732 5732 5732 5732 5733 5733 5733 5734 5734 5734 5734 5734 5734 5734 5733 5733 5732 5732 5731 5731 5730 5729 5729 5729 5727 5727 5726 5725 5725 5725 5724 5723 5722 5722 5722
5715 5715 5716 5717 5718 5719 5721 5721 5721 5722 5723 5723 5724 5725 5725 5726 5727 5728 5728 5728 5729 5730 5730 5730 5730 5730 5730 5731 5733 5732 5731 5731 5732 5733 5733 5734 5734 5734 5734 5734 5732 5731 5730 5730 5729 5729 5729 5729 5728 5727 5726 5726 5727 5728 5728 5729 5729 5729 5730 5730 5730 5730 5730 5729 5729 5728 5728 5727 5726 5726 5725 5724 5724 5723 5722 5721 5721 5720 5719 5719 5718 5717 5717 5716 5716
5711 5711 5713 5714 5715 5716 5717 5718 5718 5719 5720 5720 5721 5721 5722 5723 5723 5724 5724 5724 5724 5725 5725 5725 5725 5725 5726 5727 5728 5728 5728 5727 5727 5727 5727 5727 5728 5728 5728 5729 5728 5726 5725 5725 5725 5725 5724 5724 5724 5723 5722 5722 5722 5723 5723 5724 5724 5725 5725 5726 5726 5726 5725 5725 5724 5723 5722 5722 5721 5720 5720 5719 5718 5718 5716 5715 5715 5715 5713 5713 5712 5711 5710 5710 5709
5707 5707 5708 5710 5711 5712 5713 5714 5715 5715 5716 5717 5717 5718 5718 5719 5719 5719 5719 5720 5720 5720 5720 5720 5720 5721 5721 5721 5723 5724 5723 5723 5723 5722 5722 5721 5722 5722 5722 5723 5722 5721 5721 5720 5720 5720 5719 5718 5718 5719 5719 5717 5717 5717 5718 5719 5719 5720 5721 5721 5720 5720 5720 5719 5719 5718 5717 5716 5716 5715 5714 5713 5713 5712 5711 5709 5709 5708 5707 5707 5706 5705 5704 5704 5703
5703 5703 5704 5705 5706 5708 5709 5710 5710 5711 5711 5712 5712 5713 5714 5714 5714 5714 5714 5715 5715 5715 5715 5715 5715 5716 5716 5716 5717 5718 5719 5718 5717 5717 5717 5717 5717 5717 5717 5717 5716 5716 5716 5715 5715 5714 5713 5713 5713 5713 5713 5713 5712 5712 5712 5713 5714 5714 5715 5715 5715 5714 5714 5713 5712 5712 5711 5711 5710 5710 5708 5707 5707 5706 5705 5704 5703 5702 5701 5700 5699 5699 5698 5697 5696
5699 5699 5700 5701 5701 5703 5704 5705 5705 5706 5707 5707 5707 5707 5708 5708 5708 5708 5709 5709 5710 5710 5711 5710 5710 5710 5711 5711 5711 5712 5713 5712 5712 5711 5711 5711 5712 5712 5712 5712 5711 5711 5711 5710 5709 5709 5708 5708 5708 5708 5708 5708 5708 5708 5707 5707 5708 5709 5709 5709 5709 5708 5707 5707 5707 5706 5705 5705 5705 5704 5703 5702 5701 5700 5699 5698 5697 5696 5695 5694 5693 5692 5691 5691 5690
5696 5696 5697 5697 5696 5697 5698 5699 5700 5701 5701 5701 5701 5702 5702 5703 5703 5703 5703 5703 5704 5704 5704 5705 5705 5705 5705 5705 5705 5706 5707 5707 5706 5705 5705 5705 5706 5706 5707 5706 5706 5706 5706 5706 5705 5704 5703 5702 5703 5703 5702 5702 5703 5703 5702 5703 5703 5704 5704 5704 5704 5703 5702 5701 5701 5700 5700 5700 5699 5698 5697 5696 5695 5694 5692 5691 5690 5689 5688 5688 5687 5685 5684 5683 5683
5690 5691 5691 5691 5691 5691 5692 5693 5694 5694 5694 5695 5695 5696 5696 5696 5697 5697 5698 5697 5697 5697 5697 5696 5697 5697 5697 5697 5698 5699 5700 5700 5699 5698 5698 5699 5699 5699 5700 5700 5699 5700 5701 5701 5700 5699 5698 5697 5698 5697 5696 5696 5697 5697 5697 5698 5698 5698 5698 5699 5699 5698 5696 5695 5695 5695 5694 5694 5693 5692 5691 5690 5689 5687 5686 5685 5684 5683 5682 5682 5680 5679 5678 5676 5675
5684 5685 5685 5685 5685 5685 5686 5686 5687 5687 5688 5688 5689 5689 5690 5690 5690 5691 5691 5691 5690 5690 5689 5688 5688 5688 5689 5689 5690 5691 5691 5692 5692 5691 5691 5691 5692 5692 5693 5692 5693 5693 5694 5694 5694 5692 5692 5692 5692 5691 5690 5690 5690 5690 5690 5691 5692 5692 5692 5692 5692 5692 5691 5689 5689 5689 5688 5687 5687 5686 5685 5684 5682 5681 5680 5679 5678 5677 5677 5676 5674 5672 5671 5669 5668
5679 5680 5679 5679 5679 5679 5679 5680 5681 5681 5681 5681 5682 5683 5683 5684 5683 5683 5683 5684 5683 5682 5681 5681 5681 5681 5681 5682 5682 5683 5684 5684 5684 5684 5684 5684 5684 5685 5685 5685 5685 5686 5686 5687 5687 5686 5685 5686 5685 5684 5684 5683 5683 5683 5683 5684 5684 5685 5685 5685 5685 5686 5685 5684 5683 5682 5682 5680 5680 5679 5678 5677 5676 5675 5674 5673 5672 5671 5670 5669 5668 5666 5664 5663 5661
5673 5673 5673 5673 5673 5673 5673 5674 5674 5675 5675 5675 5675 5675 5675 5676 5675 5675 5675 5675 5676 5675 5674 5673 5673 5672 5673 5675 5676 5676 5677 5677 5676 5676 5677 5677 5676 5677 5677 5677 5678 5679 5679 5680 5680 5680 5679 5678 5678 5677 5676 5677 5676 5676 5676 5677 5677 5677 5678 5678 5678 5678 5679 5678 5677 5676 5676 5674 5673 5673 5672 5671 5670 5669 5668 5667 5667 5667 5666 5664 5662 5661 5659 5657 5655
5667 5667 5667 5666 5666 5666 5666 5666 5666 5667 5667 5667 5667 5667 5667 5667 5667 5667 5667 5667 5668 5667 5666 5666 5666 5664 5663 5666 5668 5669 5671 5671 5669 5668 5669 5669 5669 5669 5670 5669 5670 5672 5673 5673 5674 5674 5672 5670 5670 5670 5669 5669 5669 5669 5670 5670 5670 5670 5670 5671 5671 5671 5671 5671 5670 5669 5669 5668 5667 5666 5666 5665 5664 5663 5662 5661 5660 5660 5659 5658 5656 5654 5652 5651 5649
5660 5660 5659 5658 5658 5658 5658 5658 5658 5658 5659 5659 5659 5659 5659 5659 5659 5659 5659 5659 5659 5659 5659 5658 5658 5656 5654 5656 5659 5661 5663 5664 5661 5660 5661 5662 5661 5662 5662 5661 5661 5662 5664 5665 5667 5669 5667 5663 5662 5663 5663 5663 5663 5663 5664 5664 5664 5664 5664 5664 5664 5664 5664 5663 5663 5662 5662 5662 5661 5660 5659 5659 5657 5656 5655 5654 5653 5652 5651 5649 5647 5646 5644 5642 5640
5652 5652 5651 5650 5650 5649 5649 5649 5649 5649 5649 5649 5649 5650 5650 5650 5650 5650 5650 5649 5649 5650 5650 5649 5649 5648 5647 5647 5649 5651 5654 5656 5654 5653 5654 5654 5654 5654 5654 5653 5652 5653 5654 5655 5658 5660 5659 5657 5656 5656 5656 5657 5657 5657 5658 5658 5658 5658 5658 5658 5658 5658 5657 5656 5656 5655 5655 5655 5654 5653 5652 5652 5651 5650 5649 5648 5646 5646 5644 5643 5640 5638 5636 5635 5633
5644 5643 5643 5643 5642 5642 5641 5641 5640 5640 5640 5640 5640 5640 5641 5641 5641 5641 5640 5640 5639 5639 5640 5640 5640 5640 5640 5640 5640 5641 5644 5646 5646 5645 5645 5646 5646 5646 5646 5645 5645 5644 5644 5647 5650 5650 5649 5649 5649 5649 5649 5650 5651 5651 5651 5651 5651 5651 5651 5651 5651 5651 5651 5650 5650 5649 5648 5648 5648 5647 5646 5645 5644 5643 5642 5641 5640 5639 5638 5637 5635 5632 5630 5628 5626
5636 5635 5635 5634 5634 5633 5633 5632 5631 5631 5630 5630 5630 5630 5630 5630 5630 5631 5630 5630 5629 5629 5629 5629 5630 5630 5631 5631 5631 5632 5634 5636 5637 5637 5636 5637 5639 5639 5638 5638 5637 5637 5637 5639 5641 5641 5640 5641 5641 5642 5642 5643 5643 5644 5644 5644 5645 5645 5644 5644 5645 5645 5645 5644 5643 5643 5642 5642 5641 5640 5640 5639 5638 5636 5635 5634 5633 5632 5631 5630 5628 5626 5623 5621 5619
5628 5627 5626 5626 5625 5624 5624 5623 5622 5622 5621 5620 5620 5620 5620 5619 5620 5620 5620 5619 5618 5618 5618 5618 5619 5620 5621 5622 5623 5625 5626 5627 5628 5628 5627 5628 5630 5631 5630 5630 5629 5629 5629 5631 5632 5632 5633 5633 5634 5634 5635 5635 5635 5636 5636 5637 5638 5638 5637 5637 5638 5638 5638 5637 5637 5637 5636 5635 5635 5634 5634 5633 5631 5630 5629 5627 5626 5625 5623 5622 5621 5618 5616 5614 5613
5619 5618 5618 5617 5616 5615 5614 5614 5613 5613 5611 5610 5610 5610 5610 5609 5609 5609 5609 5608 5607 5607 5607 5608 5608 5610 5611 5613 5614 5616 5618 5620 5620 5619 5619 5621 5622 5623 5623 5622 5621 5621 5622 5622 5623 5624 5625 5626 5626 5627 5628 5628 5628 5629 5630 5631 5631 5631 5631 5631 5631 5632 5632 5631 5630 5630 5630 5629 5628 5628 5627 5626 5625 5624 5622 5621 5619 5617 5616 5614 5612 5610 5609 5607 5605
5611 5609 5609 5608 5607 5606 5605 5604 5604 5603 5602 5601 5600 5600 5600 5599 5598 5598 5598 5597 5596 5596 5596 5596 5597 5599 5601 5603 5604 5605 5607 5611 5612 5611 5613 5615 5615 5615 5616 5615 5614 5615 5614 5614 5615 5616 5618 5619 5620 5620 5621 5622 5622 5622 5624 5625 5624 5624 5624 5624 5625 5626 5626 5624 5624 5624 5623 5623 5622 5622 5621 5620 5618 5617 5615 5614 5612 5610 5609 5607 5605 5603 5602 5600 5599
5602 5600 5599 5598 5597 5596 5596 5595 5594 5593 5592 5591 5591 5591 5590 5589 5588 5587 5587 5586 5585 5586 5585 5585 5586 5588 5590 5593 5595 5594 5596 5600 5601 5602 5605 5608 5608 5610 5610 5608 5608 5608 5608 5608 5608 5610 5611 5612 5613 5614 5615 5616 5616 5617 5618 5619 5619 5618 5618 5617 5617 5618 5619 5618 5618 5618 5618 5617 5616 5615 5614 5613 5611 5610 5608 5607 5605 5604 5602 5600 5598 5597 5595 5594 5593
5593 5591 5590 5589 5588 5587 5586 5585 5585 5584 5582 5581 5581 5581 5581 5580 5578 5577 5576 5576 5574 5574 5574 5574 5575 5576 5579 5582 5584 5584 5585 5588 5590 5592 5595 5599 5601 5603 5602 5601 5601 5601 5601 5601 5602 5603 5604 5605 5606 5607 5608 5609 5610 5611 5612 5613 5613 5613 5613 5612 5611 5612 5611 5611 5611 5611 5611 5610 5609 5608 5607 5606 5604 5603 5602 5601 5599 5597 5596 5594 5592 5591 5590 5588 5587
5584 5583 5582 5581 5580 5579 5578 5577 5576 5575 5573 5572 5571 5571 5571 5570 5570 5568 5567 5566 5565 5564 5564 5565 5564 5565 5567 5570 5572 5574 5576 5577 5579 5582 5586 5589 5592 5593 5594 5594 5595 5594 5593 5594 5595 5596 5597 5598 5599 5600 5602 5603 5604 5605 5605 5606 5606 5607 5607 5606 5606 5606 5605 5604 5604 5604 5603 5603 5602 5601 5600 5599 5598 5597 5596 5595 5594 5592 5590 5589 5587 5586 5584 5583 5581
5576 5575 5574 5573 5572 5571 5570 5569 5568 5567 5566 5565 5564 5563 5562 5561 5561 5560 5558 5558 5556 5555 5555 5556 5556 5556 5558 5560 5561 5564 5566 5567 5568 5572 5576 5578 5580 5583 5585 5587 5589 5587 5586 5587 5589 5589 5590 5592 5594 5595 5596 5597 5599 5599 5599 5600 5601 5601 5601 5600 5600 5601 5600 5599 5598 5597 5596 5596 5595 5594 5594 5593 5593 5592 5591 5590 5589 5587 5586 5584 5583 5581 5579 5578 5576
5569 5568 5568 5567 5566 5565 5564 5563 5562 5561 5560 5558 5557 5556 5555 5554 5553 5552 5551 5549 5548 5546 5546 5547 5549 5549 5550 5552 5553 5555 5557 5558 5560 5562 5565 5567 5570 5573 5577 5580 5581 5581 5581 5581 5582 5583 5584 5586 5588 5590 5591 5591 5592 5593 5594 5595 5595 5596 5596 5595 5594 5594 5594 5593 5592 5591 5591 5590 5590 5589 5589 5588 5588 5587 5587 5586 5585 5583 5582 5580 5578 5576 5574 5572 5570
5564 5563 5563 5562 5561 5560 5559 5558 5557 5555 5554 5553 5551 5550 5548 5546 5544 5543 5541 5540 5539 5537 5536 5538 5541 5542 5543 5545 5547 5547 5549 5550 5552 5553 5556 5558 5560 5564 5568 5572 5575 5576 5576 5575 5575 5576 5578 5580 5582 5584 5585 5586 5587 5588 5589 5590 5591 5591 5591 5590 5589 5589 5588 5587 5587 5586 5586 5586 5585 5585 5585 5585 5584 5584 5583 5582 5581 5580 5578 5576 5574 5571 5569 5566 5565
5560 5560 5559 5558 5557 5556 5555 5553 5552 5551 5549 5548 5546 5544 5541 5538 5535 5532 5530 5529 5528 5527 5526 5528 5531 5534 5535 5538 5540 5541 5542 5543 5545 5547 5548 5550 5552 5555 5559 5563 5567 5569 5570 5570 5570 5570 5572 5575 5577 5579 5580 5581 5582 5583 5584 5585 5586 5587 5587 5586 5585 5584 5584 5583 5583 5582 5582 5582 5581 5581 5581 5581 5581 5581 5580 5580 5578 5577 5574 5572 5569 5566 5564 5562 5561
5557 5556 5556 5555 5553 5552 5551 5549 5548 5546 5544 5542 5540 5537 5533 5529 5524 5521 5519 5517 5516 5516 5516 5518 5521 5524 5527 5531 5533 5535 5536 5538 5539 5541 5542 5544 5546 5549 5552 5557 5560 5560 5563 5566 5565 5564 5567 5571 5572 5574 5575 5576 5577 5579 5580 5581 5582 5583 5582 5582 5582 5581 5580 5580 5579 5579 5579 5578 5578 5578 5578 5578 5578 5578 5578 5577 5575 5573 5571 5568 5565 5562 5560 5559 5558
5554 5553 5552 5551 5550 5548 5547 5545 5543 5541 5539 5536 5533 5528 5523 5518 5514 5511 5510 5508 5507 5507 5507 5509 5511 5515 5519 5522 5525 5528 5531 5532 5534 5537 5538 5539 5541 5542 5546 5551 5553 5555 5559 5562 5560 5559 5563 5567 5567 5569 5571 5571 5573 5575 5576 5577 5578 5579 5579 5578 5578 5577 5577 5577 5576 5576 5576 5575 5575 5576 5576 5576 5576 5576 5575 5574 5572 5571 5568 5565 5562 5559 5557 5556 5556
5551 5550 5549 5548 5547 5545 5543 5541 5539 5536 5534 5530 5525 5520 5514 5510 5506 5504 5502 5501 5500 5500 5501 5502 5505 5508 5512 5515 5518 5522 5525 5527 5529 5532 5534 5535 5536 5538 5540 5545 5549 5553 5557 5557 5555 5556 5561 5563 5563 5565 5566 5567 5569 5571 5572 5572 5573 5574 5575 5574 5574 5573 5574 5574 5573 5573 5573 5573 5573 5573 5574 5574 5574 5573 5572 5571 5570 5568 5566 5563 5560 5557 5555 5554 5554
5548 5547 5546 5544 5543 5542 5539 5537 5535 5532 5528 5524 5518 5512 5507 5504 5501 5499 5497 5495 5494 5494 5496 5498 5502 5506 5510 5512 5514 5517 5520 5522 5525 5527 5529 5531 5532 5533 5536 5540 5544 5550 5553 5553 5552 5554 5558 5559 5559 5561 5562 5563 5565 5567 5567 5568 5569 5570 5570 5570 5570 5570 5570 5570 5570 5570 5570 5570 5571 5571 5571 5571 5571 5571 5570 5569 5568 5566 5565 5562 5559 5556 5553 5552 5551
5545 5544 5543 5541 5540 5538 5536 5534 5531 5528 5524 5519 5513 5507 5503 5500 5498 5496 5493 5491 5490 5491 5494 5498 5502 5506 5509 5510 5511 5513 5516 5518 5521 5524 5526 5527 5529 5530 5531 5535 5539 5544 5548 5549 5549 5551 5553 5554 5555 5557 5558 5560 5562 5563 5563 5564 5565 5566 5566 5566 5566 5566 5567 5567 5567 5567 5567 5568 5568 5569 5569 5569 5569 5568 5568 5567 5565 5564 5563 5561 5558 5556 5553 5551 5549
5543 5541 5540 5539 5537 5535 5533 5530 5528 5524 5520 5514 5508 5504 5501 5499 5497 5494 5492 5491 5491 5492 5496 5499 5502 5505 5506 5507 5509 5511 5513 5515 5518 5520 5522 5524 5526 5528 5529 5531 5534 5538 5542 5545 5546 5547 5548 5550 5552 5553 5554 5556 5558 5558 5559 5560 5561 5561 5562 5562 5562 5563 5563 5563 5564 5564 5565 5565 5566 5567 5567 5567 5567 5566 5566 5565 5564 5563 5561 5559 5557 5555 5552 5550 5548
5540 5539 5537 5536 5534 5532 5530 5528 5525 5522 5517 5511 5505 5502 5499 5498 5496 5495 5493 5493 5493 5495 5497 5499 5501 5502 5504 5505 5507 5509 5510 5512 5515 5517 5519 5521 5523 5525 5527 5529 5532 5535 5538 5540 5541 5542 5544 5546 5548 5549 5550 5552 5553 5554 5555 5555 5556 5557 5557 5557 5558 5559 5559 5560 5561 5561 5562 5563 5564 5564 5564 5565 5565 5564 5564 5563 5562 5561 5560 5558 5556 5554 5551 5549 5547
5539 5537 5536 5534 5532 5530 5528 5526 5523 5520 5515 5509 5503 5501 5499 5497 5496 5495 5495 5495 5496 5497 5498 5500 5501 5502 5503 5505 5506 5507 5508 5510 5511 5513 5514 5516 5519 5521 5524 5526 5529 5532 5535 5537 5538 5540 5542 5543 5543 5545 5547 5548 5549 5549 5550 5551 5552 5552 5553 5554 5555 5555 5556 5557 5558 5559 5560 5561 5561 5562 5562 5562 5562 5562 5562 5561 5560 5559 5558 5556 5554 5552 5550 5548 5546
5537 5536 5534 5532 5530 5528 5526 5524 5521 5518 5513 5508 5503 5501 5500 5498 5496 5496 5496 5496 5497 5498 5499 5500 5501 5502 5503 5504 5505 5505 5506 5507 5508 5509 5511 5513 5516 5519 5522 5524 5526 5529 5531 5533 5535 5537 5538 5539 5539 5541 5544 5545 5545 5546 5547 5547 5548 5548 5549 5550 5551 5552 5553 5554 5555 5556 5557 5558 5559 5559 5560 5560 5560 5561 5560 5560 5559 5558 5556 5555 5553 5551 5549 5548 5546
5536 5535 5533 5531 5529 5527 5525 5522 5520 5517 5513 5508 5504 5502 5501 5499 5498 5497 5497 5498 5498 5499 5500 5501 5502 5503 5503 5504 5504 5504 5504 5505 5506 5507 5509 5512 5515 5518 5520 5522 5524 5526 5528 5531 5532 5534 5535 5536 5537 5539 5541 5541 5542 5543 5543 5544 5544 5545 5546 5547 5549 5550 5551 5552 5553 5554 5555 5556 5556 5557 5558 5558 5558 5558 5558 5558 5557 5556 5555 5553 5552 5550 5549 5547 5545
5536 5534 5532 5530 5528 5526 5524 5522 5520 5517 5514 5510 5506 5504 5502 5501 5500 5499 5499 5500 5500 5501 5501 5502 5502 5503 5503 5503 5503 5503 5504 5505 5506 5508 5510 5512 5514 5516 5518 5520 5522 5524 5526 5528 5530 5531 5532 5534 5535 5537 5538 5539 5539 5540 5540 5541 5542 5543 5544 5545 5546 5547 5548 5549 5550 5551 5552 5553 5554 5555 5555 5556 5556 5556 5556 5556 5555 5554 5553 5552 5551 5549 5548 5546 5545
5535 5533 5532 5530 5528 5526 5523 5521 5519 5517 5515 5512 5509 5507 5505 5503 5502 5502 5502 5502 5502 5502 5502 5503 5503 5503 5503 5504 5504 5504 5504 5505 5506 5508 5509 5511 5513 5515 5517 5519 5521 5523 5524 5526 5528 5529 5531 5532 5534 5535 5536 5537 5537 5537 5538 5538 5539 5540 5542 5543 5544 5545 5546 5547 5548 5549 5550 5551 5551 5552 5553 5553 5554 5554 5554 5554 5553 5552 5551 5550 5549 5548 5547 5545 5544
5533 5532 5531 5530 5528 5526 5524 5521 5519 5518 5516 5514 5512 5510 5508 5506 5505 5504 5504 5503 5503 5503 5503 5503 5503 5503 5503 5504 5504 5504 5504 5505 5506 5507 5508 5509 5511 5513 5515 5517 5519 5521 5522 5524 5526 5528 5529 5531 5532 5533 5534 5534 5534 5535 5535 5536 5537 5539 5540 5541 5542 5543 5544 5545 5546 5546 5547 5548 5549 5550 5550 5551 5551 5551 5551 5551 5551 5550 5550 5549 5548 5547 5546 5545 5543
5533 5531 5530 5529 5527 5526 5524 5522 5520 5518 5517 5515 5514 5512 5511 5509 5508 5507 5506 5505 5505 5504 5504 5504 5504 5503 5503 5503 5503 5503 5503 5503 5504 5504 5506 5507 5509 5511 5513 5515 5517 5519 5521 5523 5525 5526 5527 5529 5530 5530 5531 5531 5532 5532 5533 5534 5535 5537 5538 5539 5540 5541 5542 5542 5543 5544 5545 5546 5546 5547 5548 5548 5549 5549 5549 5549 5548 5548 5548 5547 5546 5545 5544 5543 5542
5532 5531 5530 5528 5527 5526 5524 5522 5521 5519 5517 5516 5515 5514 5512 5511 5510 5509 5508 5507 5506 5505 5505 5504 5504 5503 5503 5503 5503 5503 5502 5502 5502 5503 5504 5505 5507 5508 5511 5513 5515 5517 5519 5521 5522 5524 5525 5526 5527 5528 5528 5529 5530 5530 5531 5532 5533 5534 5536 5537 5538 5539 5540 5540 5541 5542 5542 5543 5544 5545 5545 5545 5546 5546 5546 5546 5546 5546 5545 5545 5544 5544 5543 5542 5541